Location: *
(53.9002°N, 27.5624°E)
Time: 07:10:31
(UTC+00:00)

Cosmos 1538 Rocket - Pass Details

Date: 12 November 2019
Orbit: 751 x 793 km, 74.0° (Epoch: 06 December)

Event Time Altitude Azimuth Distance (km) Brightness Sun altitude
Rises 16:04:06 0° 183° (S) 3,223 7.4 -15.7°
Reaches altitude 10° 16:06:32 10° 177° (S) 2,308 6.5 -16.1°
Maximum altitude 16:11:29 44° 106° (ESE) 1,063 4.3 -16.8°
Enters shadow 16:14:30 22° 46° (NE) 1,648 5.3 -17.3°
